Bellingham, WA
on Thursday, November 22, 2012

Thursday
Previous Day Next Day
Daily Summary
 ActualAverageRecord
Temperature
Mean Temperature °F / °C 42°F / 6°C  
Max Temperature 48°F / 9°C 48°F / 9°C 60°F / 15°C (1995)
Min Temperature 35°F / 2°C 35°F / 2°C 11°F / -11°C (1985)
Degree Days
Heating Degree Days 25 23  
Month to date heating degree days 459  
Cooling Degree Days 0 0  
Month to date cooling degree days 0  
Year to date cooling degree days 42  
Moisture
Dew Point 37°F / 3°C   
Average Humidity 82    
Maximum Humidity 93    
Minimum Humidity 64    
Precipitation
Precipitation 0.00 in / 0.00 cm 0.19 in / 4.83 cm 0.92 in / 2.34 cm (2011)
Month to date precipitation 4.32  
Year to date precipitation 30.13  
Wind
Wind Speed 4 mph / 6 km/h   
Max Wind Speed 10 mph / 16 km/h   
Max Gust Speed 16 mph / 26 km/h   
Visibility 9 miles / 15 kilometers   
Events Rain   

Key: T is trace of precipitation, MM is missing value
Source: NWS Daily Summary
Time(PST)TemperatureDew PointHumidity Pressure Visibility Wind DirectionWind SpeedGust SpeedPrecipitationEvents Conditions
12:53 AM 43.0°F / 6.1°C 39.0°F / 3.9°C 86% 30.31 in / 1026.4 hPa 10.0 miles / 16.1 kilometers SSE 5.8 mph / 9.3 km/h - N/A   Scattered Clouds
1:53 AM 39.9°F / 4.4°C 37.0°F / 2.8°C 89% 30.33 in / 1026.9 hPa 10.0 miles / 16.1 kilometers SSE 3.5 mph / 5.6 km/h - N/A   Partly Cloudy
2:53 AM 39.0°F / 3.9°C 37.0°F / 2.8°C 93% 30.34 in / 1027.3 hPa 10.0 miles / 16.1 kilometers Calm Calm - N/A   Clear
3:53 AM 35.6°F / 2.0°C 33.8°F / 1.0°C 93% 30.32 in / 1026.6 hPa 7.0 miles / 11.3 kilometers Calm Calm - N/A   Clear
4:46 AM 35.6°F / 2.0°C 33.8°F / 1.0°C 93% 30.33 in / 1027.0 hPa 1.8 miles / 2.8 kilometers Calm Calm - N/A   Mostly Cloudy
4:53 AM 36.0°F / 2.2°C 34.0°F / 1.1°C 93% 30.37 in / 1028.2 hPa 3.0 miles / 4.8 kilometers Calm Calm - N/A   Mostly Cloudy
5:53 AM 37.9°F / 3.3°C 36.0°F / 2.2°C 93% 30.38 in / 1028.6 hPa 10.0 miles / 16.1 kilometers Calm Calm - N/A   Mostly Cloudy
6:53 AM 37.0°F / 2.8°C 35.1°F / 1.7°C 93% 30.38 in / 1028.8 hPa 10.0 miles / 16.1 kilometers ENE 4.6 mph / 7.4 km/h - N/A   Overcast
7:53 AM 37.9°F / 3.3°C 36.0°F / 2.2°C 93% 30.39 in / 1028.9 hPa 10.0 miles / 16.1 kilometers NE 3.5 mph / 5.6 km/h - N/A   Scattered Clouds
8:53 AM 39.9°F / 4.4°C 37.0°F / 2.8°C 89% 30.39 in / 1029.0 hPa 10.0 miles / 16.1 kilometers North 3.5 mph / 5.6 km/h - N/A   Overcast
9:53 AM 42.1°F / 5.6°C 37.9°F / 3.3°C 85% 30.38 in / 1028.7 hPa 10.0 miles / 16.1 kilometers NNE 6.9 mph / 11.1 km/h - N/A   Overcast
10:53 AM 44.1°F / 6.7°C 39.0°F / 3.9°C 82% 30.38 in / 1028.5 hPa 10.0 miles / 16.1 kilometers NNE 6.9 mph / 11.1 km/h - N/A   Overcast
11:53 AM 45.0°F / 7.2°C 37.0°F / 2.8°C 74% 30.36 in / 1028.0 hPa 10.0 miles / 16.1 kilometers NE 4.6 mph / 7.4 km/h - N/A   Overcast
12:53 PM 45.0°F / 7.2°C 37.0°F / 2.8°C 74% 30.34 in / 1027.4 hPa 10.0 miles / 16.1 kilometers NNE 5.8 mph / 9.3 km/h - N/A   Overcast
1:53 PM 45.0°F / 7.2°C 37.0°F / 2.8°C 74% 30.34 in / 1027.2 hPa 10.0 miles / 16.1 kilometers North 4.6 mph / 7.4 km/h - N/A   Overcast
2:53 PM 44.1°F / 6.7°C 37.9°F / 3.3°C 79% 30.32 in / 1026.5 hPa 10.0 miles / 16.1 kilometers North 6.9 mph / 11.1 km/h - N/A   Overcast
3:53 PM 44.1°F / 6.7°C 37.9°F / 3.3°C 79% 30.32 in / 1026.6 hPa 10.0 miles / 16.1 kilometers NNE 5.8 mph / 9.3 km/h - N/A   Overcast
4:53 PM 44.1°F / 6.7°C 37.0°F / 2.8°C 76% 30.29 in / 1025.6 hPa 10.0 miles / 16.1 kilometers NNE 8.1 mph / 13.0 km/h - N/A   Overcast
5:53 PM 44.1°F / 6.7°C 37.0°F / 2.8°C 76% 30.25 in / 1024.3 hPa 10.0 miles / 16.1 kilometers NNE 5.8 mph / 9.3 km/h - N/A   Overcast
6:53 PM 45.0°F / 7.2°C 37.0°F / 2.8°C 74% 30.24 in / 1023.8 hPa 10.0 miles / 16.1 kilometers NNE 9.2 mph / 14.8 km/h - N/A   Overcast
7:53 PM 44.1°F / 6.7°C 37.0°F / 2.8°C 76% 30.21 in / 1022.8 hPa 10.0 miles / 16.1 kilometers NE 8.1 mph / 13.0 km/h 16.1 mph / 25.9 km/h N/A   Overcast
8:53 PM 45.0°F / 7.2°C 36.0°F / 2.2°C 71% 30.19 in / 1022.1 hPa 10.0 miles / 16.1 kilometers NNE 10.4 mph / 16.7 km/h - N/A   Overcast
9:53 PM 44.1°F / 6.7°C 37.0°F / 2.8°C 76% 30.19 in / 1022.3 hPa 10.0 miles / 16.1 kilometers North 4.6 mph / 7.4 km/h - N/A   Overcast
10:53 PM 44.1°F / 6.7°C 37.0°F / 2.8°C 76% 30.17 in / 1021.6 hPa 10.0 miles / 16.1 kilometers Variable 5.8 mph / 9.3 km/h - N/A   Overcast
11:53 PM 48.9°F / 9.4°C 37.0°F / 2.8°C 64% 30.16 in / 1021.3 hPa 10.0 miles / 16.1 kilometers ESE 9.2 mph / 14.8 km/h - 0.00 in / 0.0 cm Rain Light Rain
Moon Phase
Nov. 22 Nov. 28 Dec. 06 Dec. 13 Dec. 20
Sunrise:07:30 AM (PST) Moon Rise:01:32 PM (PST)11/22
Sunset:04:22 PM (PST) Moon Set:01:30 AM (PST)11/22

Copyright © 2014 The Weather Underground, Inc.